| time (UTC) | temp C | wind direction | speed KPH | gust KPH | rain 1hr cm | rain 24hr cm | rain mn cm | humidity % | barometer mb |
| 20260508045954 | 9 | 24 | 3.2 | 3.2 | 0.00 | 0.03 | 0.00 | 77 | 1011.4 |
| 20260508044952 | 9 | 25 | 3.2 | 3.2 | 0.00 | 0.03 | 0.00 | 77 | 1011.3 |
| 20260508043950 | 9 | 27 | 3.2 | 3.2 | 0.00 | 0.03 | 0.00 | 77 | 1011.4 |
| 20260508042947 | 9 | 24 | 3.2 | 4.8 | 0.00 | 0.03 | 0.00 | 77 | 1011.4 |
| 20260508041925 | 9 | 24 | 3.2 | 4.8 | 0.00 | 0.03 | 0.00 | 77 | 1011.3 |
| 20260508040944 | 9 | 24 | 3.2 | 4.8 | 0.00 | 0.03 | 0.00 | 77 | 1011.3 |
| 20260508035921 | 10 | 22 | 3.2 | 4.8 | 0.00 | 0.03 | 0.00 | 77 | 1011.5 |
| 20260508034920 | 10 | 24 | 3.2 | 4.8 | 0.00 | 0.03 | 0.00 | 76 | 1011.3 |
| 20260508033937 | 10 | 26 | 3.2 | 4.8 | 0.00 | 0.03 | 0.00 | 76 | 1011.3 |
| 20260508032915 | 10 | 27 | 3.2 | 4.8 | 0.00 | 0.03 | 0.00 | 76 | 1011.3 |
| 20260508031913 | 10 | 25 | 3.2 | 4.8 | 0.00 | 0.03 | 0.00 | 76 | 1011.3 |
| 20260508030911 | 10 | 25 | 3.2 | 4.8 | 0.00 | 0.03 | 0.00 | 76 | 1011.2 |
| 20260508025930 | 10 | 25 | 3.2 | 4.8 | 0.00 | 0.03 | 0.00 | 76 | 1011.3 |
| 20260508024907 | 10 | 26 | 3.2 | 6.4 | 0.00 | 0.03 | 0.00 | 76 | 1011.1 |
| 20260508023905 | 10 | 24 | 3.2 | 6.4 | 0.00 | 0.03 | 0.00 | 76 | 1011.2 |
| 20260508022904 | 10 | 24 | 3.2 | 4.8 | 0.00 | 0.03 | 0.00 | 76 | 1011.2 |
| 20260508021902 | 10 | 25 | 3.2 | 6.4 | 0.00 | 0.03 | 0.00 | 76 | 1011.2 |
| 20260508020900 | 10 | 22 | 3.2 | 4.8 | 0.00 | 0.03 | 0.00 | 76 | 1011.4 |
| 20260508015857 | 10 | 15 | 3.2 | 3.2 | 0.00 | 0.03 | 0.00 | 76 | 1011.5 |
| 20260508014856 | 10 | 18 | 3.2 | 4.8 | 0.00 | 0.03 | 0.00 | 76 | 1011.6 |
| 20260508013853 | 11 | 14 | 1.6 | 3.2 | 0.00 | 0.03 | 0.00 | 75 | 1011.7 |
| 20260508012851 | 11 | 18 | 1.6 | 3.2 | 0.00 | 0.03 | 0.00 | 75 | 1011.9 |
| 20260508011849 | 11 | 16 | 1.6 | 3.2 | 0.00 | 0.03 | 0.00 | 74 | 1011.9 |
| 20260508010907 | 11 | 14 | 1.6 | 3.2 | 0.00 | 0.03 | 0.00 | 74 | 1012.2 |
| 20260508005845 | 11 | 17 | 1.6 | 3.2 | 0.00 | 0.03 | 0.00 | 74 | 1012.1 |
| 20260508004844 | 11 | 17 | 1.6 | 3.2 | 0.00 | 0.03 | 0.00 | 74 | 1012.5 |
| 20260508003842 | 12 | 17 | 3.2 | 3.2 | 0.00 | 0.03 | 0.00 | 73 | 1012.5 |
| 20260508002843 | 12 | 22 | 3.2 | 3.2 | 0.00 | 0.03 | 0.00 | 73 | 1012.4 |
| 20260508001840 | 12 | 16 | 1.6 | 3.2 | 0.00 | 0.03 | 0.00 | 73 | 1012.6 |
| 20260508000837 | 12 | 16 | 1.6 | 3.2 | 0.00 | 0.03 | 0.00 | 73 | 1012.7 |
| 20260507235853 | 12 | 19 | 3.2 | 3.2 | 0.00 | 0.03 | 0.00 | 73 | 1012.7 |
| 20260507234832 | 12 | 17 | 1.6 | 6.4 | 0.00 | 0.03 | 0.00 | 72 | 1012.7 |
| 20260507233831 | 12 | 18 | 3.2 | 3.2 | 0.00 | 0.03 | 0.00 | 72 | 1012.7 |
| 20260507232827 | 12 | 18 | 1.6 | 3.2 | 0.00 | 0.03 | 0.00 | 72 | 1012.9 |
| 20260507231826 | 12 | 19 | 3.2 | 4.8 | 0.00 | 0.03 | 0.00 | 72 | 1012.8 |
| 20260507230823 | 12 | 21 | 1.6 | 3.2 | 0.00 | 0.03 | 0.00 | 72 | 1012.8 |
| 20260507225841 | 12 | 19 | 3.2 | 3.2 | 0.00 | 0.03 | 0.00 | 72 | 1012.8 |
| 20260507224819 | 13 | 13 | 1.6 | 3.2 | 0.00 | 0.03 | 0.00 | 71 | 1012.9 |
| 20260507223818 | 13 | 16 | 1.6 | 3.2 | 0.00 | 0.03 | 0.00 | 71 | 1012.9 |
| 20260507222815 | 13 | 26 | 3.2 | 4.8 | 0.00 | 0.03 | 0.00 | 71 | 1013.1 |
| 20260507221814 | 13 | 25 | 3.2 | 6.4 | 0.00 | 0.03 | 0.00 | 71 | 1013.1 |
| 20260507220811 | 13 | 24 | 3.2 | 4.8 | 0.00 | 0.03 | 0.00 | 71 | 1013.0 |
| 20260507215810 | 13 | 24 | 3.2 | 4.8 | 0.00 | 0.03 | 0.03 | 71 | 1013.1 |
| 20260507214807 | 13 | 23 | 3.2 | 6.4 | 0.00 | 0.03 | 0.03 | 71 | 1013.1 |
| 20260507213806 | 13 | 27 | 3.2 | 6.4 | 0.00 | 0.03 | 0.03 | 71 | 1013.1 |
| 20260507212804 | 13 | 24 | 3.2 | 4.8 | 0.00 | 0.03 | 0.03 | 71 | 1012.9 |
| 20260507211802 | 13 | 24 | 3.2 | 4.8 | 0.00 | 0.03 | 0.03 | 72 | 1012.9 |
| 20260507210840 | 13 | 24 | 3.2 | 6.4 | 0.00 | 0.03 | 0.03 | 72 | 1012.9 |
| 20260507205757 | 13 | 25 | 3.2 | 4.8 | 0.00 | 0.03 | 0.03 | 72 | 1012.6 |
| 20260507204756 | 13 | 23 | 3.2 | 6.4 | 0.00 | 0.03 | 0.03 | 72 | 1012.5 |
| 20260507203753 | 13 | 24 | 3.2 | 4.8 | 0.00 | 0.03 | 0.03 | 71 | 1012.6 |
| 20260507202751 | 13 | 20 | 3.2 | 4.8 | 0.00 | 0.03 | 0.03 | 72 | 1012.6 |
| 20260507201750 | 13 | 21 | 3.2 | 4.8 | 0.00 | 0.03 | 0.03 | 71 | 1012.5 |
| 20260507200808 | 13 | 19 | 3.2 | 4.8 | 0.00 | 0.03 | 0.03 | 71 | 1012.6 |
| 20260507195745 | 14 | 19 | 3.2 | 6.4 | 0.00 | 0.03 | 0.03 | 71 | 1012.6 |
| 20260507194744 | 14 | 14 | 3.2 | 4.8 | 0.00 | 0.03 | 0.03 | 71 | 1012.6 |
| 20260507193742 | 15 | 225 | 1.6 | 3.2 | 0.00 | 0.03 | 0.03 | 70 | 1012.7 |
| 20260507192800 | 15 | 348 | 1.6 | 6.4 | 0.00 | 0.03 | 0.03 | 68 | 1012.6 |
| 20260507191737 | 15 | 198 | 1.6 | 3.2 | 0.00 | 0.03 | 0.03 | 65 | 1012.0 |
| 20260507190736 | 16 | 345 | 1.6 | 3.2 | 0.00 | 0.03 | 0.03 | 65 | 1011.9 |
| 20260507185733 | 16 | 225 | 1.6 | 3.2 | 0.00 | 0.03 | 0.03 | 63 | 1011.9 |
| 20260507184731 | 17 | 15 | 3.2 | 6.4 | 0.00 | 0.03 | 0.03 | 61 | 1011.9 |
| 20260507183729 | 17 | 6 | 3.2 | 6.4 | 0.00 | 0.03 | 0.03 | 60 | 1011.6 |
| 20260507182728 | 17 | 7 | 3.2 | 6.4 | 0.00 | 0.03 | 0.03 | 54 | 1011.5 |
| 20260507181725 | 18 | 25 | 3.2 | 6.4 | 0.00 | 0.03 | 0.03 | 54 | 1011.3 |
| 20260507180725 | 18 | 10 | 3.2 | 6.4 | 0.00 | 0.03 | 0.03 | 53 | 1011.1 |
| 20260507175722 | 18 | 8 | 3.2 | 6.4 | 0.00 | 0.03 | 0.03 | 51 | 1011.1 |
| 20260507174739 | 18 | 358 | 3.2 | 6.4 | 0.00 | 0.03 | 0.03 | 51 | 1011.0 |
| 20260507173718 | 18 | 350 | 3.2 | 4.8 | 0.00 | 0.03 | 0.03 | 51 | 1011.0 |
| 20260507172715 | 18 | 334 | 3.2 | 6.4 | 0.00 | 0.03 | 0.03 | 52 | 1010.9 |
| 20260507171713 | 18 | 270 | 3.2 | 6.4 | 0.00 | 0.03 | 0.03 | 52 | 1010.9 |
| 20260507170731 | 18 | 243 | 3.2 | 6.4 | 0.00 | 0.03 | 0.03 | 54 | 1011.0 |
| 20260507165729 | 18 | 339 | 3.2 | 4.8 | 0.00 | 0.03 | 0.03 | 54 | 1011.0 |
| 20260507164727 | 18 | 357 | 3.2 | 6.4 | 0.00 | 0.03 | 0.03 | 54 | 1011.1 |
| 20260507163706 | 18 | 355 | 3.2 | 6.4 | 0.00 | 0.03 | 0.03 | 53 | 1011.1 |
| 20260507162723 | 18 | 298 | 3.2 | 6.4 | 0.00 | 0.03 | 0.03 | 54 | 1011.0 |
| 20260507161701 | 18 | 311 | 3.2 | 6.4 | 0.00 | 0.03 | 0.03 | 53 | 1010.9 |
| 20260507160659 | 19 | 319 | 3.2 | 8.0 | 0.00 | 0.03 | 0.03 | 52 | 1011.0 |
| 20260507155659 | 19 | 198 | 3.2 | 8.0 | 0.00 | 0.03 | 0.03 | 50 | 1010.9 |
| 20260507154655 | 19 | 18 | 3.2 | 6.4 | 0.00 | 0.03 | 0.03 | 48 | 1011.0 |
| 20260507153653 | 19 | 19 | 3.2 | 6.4 | 0.00 | 0.03 | 0.03 | 48 | 1010.9 |
| 20260507152653 | 19 | 10 | 3.2 | 6.4 | 0.00 | 0.03 | 0.03 | 49 | 1011.0 |
| 20260507151710 | 18 | 8 | 3.2 | 6.4 | 0.00 | 0.03 | 0.03 | 49 | 1011.0 |
| 20260507150648 | 18 | 17 | 3.2 | 6.4 | 0.00 | 0.03 | 0.03 | 49 | 1010.9 |
| 20260507145646 | 18 | 15 | 3.2 | 6.4 | 0.00 | 0.03 | 0.03 | 54 | 1011.0 |
| 20260507144644 | 17 | 20 | 3.2 | 6.4 | 0.00 | 0.03 | 0.03 | 59 | 1011.1 |
| 20260507143702 | 17 | 19 | 3.2 | 6.4 | 0.00 | 0.03 | 0.03 | 61 | 1011.3 |
| 20260507142640 | 17 | 19 | 3.2 | 6.4 | 0.03 | 0.03 | 0.03 | 61 | 1011.4 |
| 20260507141637 | 16 | 27 | 3.2 | 6.4 | 0.03 | 0.03 | 0.03 | 61 | 1011.4 |
| 20260507140636 | 16 | 27 | 3.2 | 6.4 | 0.03 | 0.03 | 0.03 | 60 | 1011.5 |
| 20260507135635 | 16 | 22 | 3.2 | 6.4 | 0.03 | 0.03 | 0.03 | 60 | 1011.8 |
| 20260507134633 | 17 | 31 | 3.2 | 6.4 | 0.03 | 0.03 | 0.03 | 61 | 1011.7 |
| 20260507133650 | 17 | 29 | 3.2 | 6.4 | 0.03 | 0.03 | 0.03 | 61 | 1011.9 |
| 20260507132628 | 18 | 20 | 3.2 | 9.7 | 0.00 | 0.00 | 0.00 | 57 | 1011.8 |
| 20260507131626 | 18 | 11 | 3.2 | 6.4 | 0.00 | 0.00 | 0.00 | 51 | 1011.5 |
| 20260507130724 | 19 | 10 | 3.2 | 6.4 | 0.00 | 0.00 | 0.00 | 54 | 1011.3 |
| 20260507125621 | 19 | 14 | 3.2 | 4.8 | 0.00 | 0.00 | 0.00 | 51 | 1011.0 |
| 20260507124620 | 18 | 6 | 3.2 | 6.4 | 0.00 | 0.00 | 0.00 | 50 | 1011.1 |
| 20260507123617 | 18 | 18 | 3.2 | 6.4 | 0.00 | 0.00 | 0.00 | 50 | 1011.0 |
| 20260507122636 | 18 | 16 | 3.2 | 6.4 | 0.00 | 0.00 | 0.00 | 52 | 1011.2 |
| 20260507121613 | 18 | 10 | 3.2 | 6.4 | 0.00 | 0.00 | 0.00 | 54 | 1011.2 |
| 20260507120611 | 18 | 11 | 3.2 | 4.8 | 0.00 | 0.00 | 0.00 | 55 | 1011.4 |
| 20260507115610 | 18 | 20 | 3.2 | 6.4 | 0.00 | 0.00 | 0.00 | 56 | 1011.6 |
| 20260507114608 | 17 | 23 | 3.2 | 6.4 | 0.00 | 0.00 | 0.00 | 57 | 1011.8 |
| 20260507113606 | 17 | 326 | 3.2 | 4.8 | 0.00 | 0.00 | 0.00 | 58 | 1011.9 |
| 20260507112959 | 17 | 338 | 3.2 | 3.2 | 0.00 | 0.00 | 0.00 | 58 | 1011.8 |
| 20260507111957 | 13 | 30 | 3.2 | 6.4 | 0.00 | 0.00 | 0.00 | 71 | 1012.6 |
| 20260507092045 | 13 | 30 | 3.2 | 6.4 | 0.00 | 0.00 | 0.00 | 72 | 1012.7 |
| 20260507091102 | 12 | 25 | 3.2 | 6.4 | 0.00 | 0.00 | 0.00 | 73 | 1012.5 |
| 20260507090041 | 12 | 25 | 3.2 | 6.4 | 0.00 | 0.00 | 0.00 | 74 | 1012.6 |
| 20260507085039 | 12 | 27 | 3.2 | 6.4 | 0.00 | 0.00 | 0.00 | 75 | 1012.6 |
| 20260507084037 | 11 | 27 | 3.2 | 6.4 | 0.00 | 0.00 | 0.00 | 76 | 1012.6 |
| 20260507083034 | 11 | 28 | 3.2 | 8.0 | 0.00 | 0.00 | 0.00 | 76 | 1012.8 |
| 20260507082033 | 10 | 28 | 3.2 | 6.4 | 0.00 | 0.00 | 0.00 | 77 | 1012.8 |
| 20260507081050 | 10 | 23 | 3.2 | 6.4 | 0.00 | 0.00 | 0.00 | 77 | 1012.7 |
| 20260507080049 | 10 | 32 | 3.2 | 6.4 | 0.00 | 0.00 | 0.00 | 77 | 1012.7 |
| 20260507075026 | 10 | 20 | 3.2 | 6.4 | 0.00 | 0.00 | 0.00 | 77 | 1012.8 |
| 20260507074025 | 9 | 30 | 3.2 | 6.4 | 0.00 | 0.00 | 0.00 | 78 | 1012.8 |
| 20260507073023 | 9 | 29 | 3.2 | 6.4 | 0.00 | 0.00 | 0.00 | 78 | 1012.5 |
| 20260507072021 | 8 | 27 | 3.2 | 9.7 | 0.00 | 0.00 | 0.00 | 79 | 1012.5 |
| 20260507071019 | 8 | 29 | 3.2 | 6.4 | 0.00 | 0.00 | 0.00 | 79 | 1012.7 |
| 20260507070016 | 8 | 32 | 3.2 | 6.4 | 0.00 | 0.00 | 0.00 | 79 | 1012.7 |
| 20260507065015 | 8 | 27 | 3.2 | 4.8 | 0.00 | 0.00 | 0.00 | 79 | 1012.6 |
| 20260507064013 | 8 | 28 | 3.2 | 6.4 | 0.00 | 0.00 | 0.00 | 79 | 1012.6 |
| 20260507063011 | 8 | 25 | 3.2 | 4.8 | 0.00 | 0.00 | 0.00 | 79 | 1012.8 |
| 20260507062009 | 8 | 32 | 3.2 | 4.8 | 0.00 | 0.00 | 0.00 | 79 | 1012.7 |
| 20260507061006 | 8 | 25 | 3.2 | 6.4 | 0.00 | 0.00 | 0.00 | 79 | 1012.8 |
| 20260507060004 | 8 | 29 | 3.2 | 4.8 | 0.00 | 0.00 | 0.00 | 79 | 1012.4 |
| 20260507055003 | 8 | 36 | 3.2 | 6.4 | 0.00 | 0.00 | 0.00 | 79 | 1012.2 |
| 20260507053459 | 8 | 23 | 3.2 | 4.8 | 0.00 | 0.00 | 0.00 | 78 | 1012.4 |
| 20260507052458 | 8 | 23 | 3.2 | 4.8 | 0.00 | 0.00 | 0.00 | 78 | 1012.4 |
| 20260507051455 | 8 | 28 | 3.2 | 3.2 | 0.00 | 0.00 | 0.00 | 78 | 1012.2 |
| 20260507050453 | 8 | 26 | 3.2 | 4.8 | 0.00 | 0.00 | 0.00 | 78 | 1012.1 |